Location: *
(35.1500°N, 76.6700°W)
Time: 23:49:34
(UTC+00:00)

Cosmos 1758 Rocket - Pass Details

Date: 13 October 2019
Orbit: 603 x 635 km, 82.5° (Epoch: 20 November)

Event Time Altitude Azimuth Distance (km) Brightness Sun altitude
Rises 23:08:22 0° 358° (N) 2,908 7.0 -7.7°
Reaches altitude 10° 23:10:38 10° 2° (N) 2,002 6.1 -8.2°
Maximum altitude 23:15:00 57° 81° (E) 741 3.6 -9.1°
Drops below altitude 10° 23:19:23 10° 161° (SSE) 2,005 6.0 -10.0°
Sets 23:21:39 0° 165° (SSE) 2,911 6.9 -10.4°
